Terug naar catalogus

NOAA 16 DEB

ActiefSSO
NORAD 41210·DEBRIS·🇺🇸 United States

Gelanceerd Sep 21, 2000 vanaf Vandenberg Space Force Base

Loading…

Volgende Passages (komende 24 uur)

TLE

VersSource: Space-Track

Epoch: Sep 14, 2026, 08:46 UTC

1 41210U 00055DP  26257.36591668  .00001645  00000-0  75934-3 0  9991
2 41210  98.6745 309.0723 0022205 222.2337 137.7131 14.22207420555456

Volg NOAA 16 DEB in realtime met AllMySat

Download on the App Store